Regional Weather Roundup
Issued by NWS Raleigh/Durham, NC

Home | Current Version | Previous Version | Text Only | Print | Product List | Glossary On
Versions: 1 2 3 4 5 6 7 8 9 10 11 12 13 14 15 16 17 18 19 20 21 22 23 24 25 26 27 28 29 30 31 32 33 34 35 36 37 38 39 40 41 42 43 44 45 46 47 48 49 50
000
ASUS42 KRAH 020710
RWRRAH
NORTH CAROLINA WEATHER ROUNDUP
NATIONAL WEATHER SERVICE RALEIGH NC
200 AM EST MON MAR 02 2015

NOTE: "FAIR" INDICATES FEW OR NO CLOUDS BELOW 12,000 FEET WITH NO
SIGNIFICANT WEATHER AND/OR OBSTRUCTIONS TO VISIBILITY.

NCZ001-053-055-056-065-067-020800-
WESTERN NORTH CAROLINA

CITY           SKY/WX    TMP DP  RH WIND       PRES   REMARKS
ASHEVILLE      MOCLDY    38  36  92 CALM      30.25F
JEFFERSON      CLOUDY    50  45  83 W13G21    30.19F
MORGANTON      FOG       40  40 100 SW5       30.28F VSB 1/4
HICKORY        FOG       39  38  96 SW5       30.23F VSB 1/4
RUTHERFORDTON  FOG       40  40 100 CALM      30.26F VSB 1/4
MOUNT AIRY     FOG       36  34  92 CALM      30.22F VSB 1/4
BOONE          CLOUDY    48  48  99 W9        30.21F
$$

NCZ021-022-025-041-071-084-088-020800-
CENTRAL NORTH CAROLINA

CITY           SKY/WX    TMP DP  RH WIND       PRES   REMARKS
CHARLOTTE      FOG       39  37  92 SW7       30.27F VSB 1/2 WCI  34
GREENSBORO     FOG       36  35  96 SW10      30.20F VSB 1/2 WCI  28
WINSTON-SALEM  FOG       37  35  92 SW5       30.23F VSB 1/4 WCI  33
RALEIGH-DURHAM FOG       35  33  92 SW7       30.24F VSB 1/4 WCI  29
FORT BRAGG     CLOUDY    39  37  93 SW5       30.26F FOG
FAYETTEVILLE   FOG       38  38 100 W6        30.28F VSB 1/2 WCI  33
BURLINGTON     CLOUDY    36  34  92 SW8       30.22F FOG     WCI  30
LAURINBURG     CLOUDY    39  38  96 W6        30.29F FOG     WCI  35
$$

NCZ011-015-027-028-043-044-047-080-103-020800-
NORTHEASTERN NORTH CAROLINA

CITY           SKY/WX    TMP DP  RH WIND       PRES   REMARKS
ROCKY MT-WILSO CLOUDY    37  36  96 SW7       30.25F FOG     WCI  32
GREENVILLE     CLOUDY    37  36  93 CALM      30.26F FOG
WASHINGTON     CLOUDY    38  37  98 SW5       30.25F FOG     WCI  34
ELIZABETH CITY CLOUDY    37  36  96 SW6       30.22F FOG     WCI  32
MANTEO         CLOUDY    39  39 100 NW6       30.24S FOG     WCI  35
CAPE HATTERAS  CLOUDY    42  42 100 SW9       30.22F FOG
$$

NCZ078-087-090-091-093-098-101-020800-
SOUTHEASTERN NORTH CAROLINA

CITY           SKY/WX    TMP DP  RH WIND       PRES   REMARKS
LUMBERTON      FOG       40  38  93 W6        30.28F VSB 1/2
GOLDSBORO      CLOUDY    39  39 100 SW2       30.24F FOG
KINSTON        CLOUDY    39  39  99 SW5       30.27F FOG
KENANSVILLE    FOG       39  39 100 W3        30.28F VSB 1
NEW BERN       CLOUDY    43  42  97 SW5       30.26F FOG
CHERRY POINT   FOG       45  43  93 W6        30.27F VSB 1/2
BEAUFORT       CLOUDY    45  45 100 SW7       30.25F FOG
JACKSONVILLE   FOG       43  42  97 SW3       30.26F VSB 1/2
WILMINGTON     CLOUDY    43  42  97 S3        30.28F FOG
$$



USA.gov is the U.S. government's official web portal to all federal, state and local government web resources and services.